Preview of NWS' New Version of Forecast
This preview is not operational and should not be used for support decisions.

Regional Weather Roundup (RWR)

Issued by National Weather Service (NWS)

                            
000
ASUS42 KTBW 190917
RWRFL 
FLORIDA REGIONAL WEATHER ROUNDUP
NATIONAL WEATHER SERVICE TAMPA BAY RUSKIN FL
400 AM EST TUE FEB 19 2019

NOTE: "FAIR" INDICATES FEW OR NO CLOUDS BELOW 12,000 FEET WITH NO
SIGNIFICANT WEATHER AND/OR OBSTRUCTIONS TO VISIBILITY.

FLZ001>010-012>015-112-114-115-191000-
PANHANDLE FLORIDA
  
CITY           SKY/WX    TMP DP  RH WIND       PRES   REMARKS
PENSACOLA      CLOUDY    60  39  45 NE9G17    30.19F                  
PENSACOLA NAS  CLOUDY    60  41  49 E14       30.17F                  
MILTON NAS     CLOUDY    58  36  43 E9        30.20                   
CRESTVIEW      CLOUDY    58  36  43 VRB7      30.22F                  
DUKE FIELD     CLOUDY    59  39  47 NE7       30.20F                  
VALPARAISO     CLOUDY    59  45  58 NE12      30.18F                  
MARY ESTHER    CLOUDY    59  45  58 E13       30.18                   
PANAMA CITY    CLOUDY    56  46  69 N13       30.19F                  
TYNDALL AFB    CLOUDY    61  46  59 NE9       30.18F                  
APALACHICOLA   CLOUDY    61  45  55 NE12      30.18F                  

STATION/POSITION SKY/WX   TEMP    WIND        PRES    WAVE   SWELL
                          AIR SEA DIR/SP/G            HT/PER HT/PER
                          (F)     (DEG/KT/KT) (MB)    (FT/S) (FT/S)
30.1N   87.6W              62      60/ 21/ 25 1021.7F   6/ 7
29.2N   88.2W                      70/ 23/ 29 1019.9F   9/ 8
PANAMA CITY BEAC           57 62   40/ 10/ 16 1022.4F
TOWER C                    62      70/ 18/ 20 1021.8R

$$
FLZ011-016>038-118-127-128-134-139-239-191000-
NORTH FLORIDA
  
CITY           SKY/WX    TMP DP  RH WIND       PRES   REMARKS
MARIANNA       CLOUDY    56  44  64 NE14G20   30.24R                  
TALLAHASSEE    CLOUDY    62  46  55 NE5       30.21S                  
PERRY          MOCLDY    63  44  49 E7        30.21S                  
LIVE OAK       CLOUDY    61  45  55 E8        30.19F                  
CROSS CITY     FAIR      61  46  56 NE6       30.20S                  
LAKE CITY      CLOUDY    61  43  51 E7        30.21F                  
GAINESVILLE    CLOUDY    64  47  53 NE9       30.23F                  
WILLISTON        N/A    N/A N/A N/A MISG        N/A                   
PALATKA        CLOUDY    64  48  55 E10       30.22F                  
MAYPORT NAS    CLOUDY    62  54  74 NE13      30.23F                  
JACKSONVILLE   FAIR      60  45  57 NE8       30.23F                  
JAX NAS        MOCLDY    65  47  52 NE12      30.24F                  
JAX CECIL      CLOUDY    59  48  67 NE3       30.23F                  
FERNANDINA BEA MOCLDY    61  50  69 NE12      30.24S                  
ST AUGUSTINE   CLOUDY    62  54  74 N12       30.24F                  
PALM COAST     CLOUDY    62  55  77 NE10      30.21F                  

STATION/POSITION SKY/WX   TEMP    WIND        PRES    WAVE   SWELL
                          AIR SEA DIR/SP/G            HT/PER HT/PER
                          (F)     (DEG/KT/KT) (MB)    (FT/S) (FT/S)
SHELL POINT      NOT AVBL
KEATON BEACH               62      70/ 15/ 18 1022.3F
CEDAR KEY                  63      50/  9/ 11 1022.1F
FERNANDINA                         30/  7/ 11 1024.7F
30.7N   81.3W                 60                N/A     2/ 8
MAYPORT                            40/ 13/ 15 1023.9F
31.4N   80.9W              60 58   50/ 10/ 12 1024.0F   2/ 8   2/ 8
ST AUGUSTINE               61 61  360/ 14/ 15 1023.6F

$$
FLZ040-043>046-052-053-057-058-063-144-191000-
INTERIOR CENTRAL FLORIDA
  
CITY           SKY/WX    TMP DP  RH WIND       PRES   REMARKS
OCALA          CLOUDY    64  46  52 NE9       30.20F                  
LEESBURG       CLOUDY    63  50  62 NE10      30.20S                  
SANFORD        MOCLDY    64  56  75 N12       30.19S                  
ORLANDO EXEC   CLOUDY    67  60  78 NE13      30.18S                  
ORLANDO INTL   CLOUDY    68  63  84 N10       30.17F                  
KISSIMMEE      CLOUDY    69  64  84 NE7       30.18S                  
WINTER HAVEN   CLOUDY    69  64  84 NE5       30.18S                  
LAKELAND       CLOUDY    64  61  88 NE9       30.17S                  
BARTOW         CLOUDY    68  66  94 NE6       30.16S                  
SEBRING        CLOUDY    68  67  96 N6        30.15S                  
OKEECHOBEE     CLOUDY    73  72  94 CALM      30.14F                  

$$
FLZ041-047-054-059-064-141-147-191000-
EAST CENTRAL FLORIDA
  
CITY           SKY/WX    TMP DP  RH WIND       PRES   REMARKS
DAYTONA BEACH  CLOUDY    63  58  83 N13       30.20S                  
DELAND         CLOUDY    63  54  72 N12       30.20S                  
JFK SPACE CTR  CLOUDY    64 N/A N/A N12       30.17S                  
CAPE CANAVERAL CLOUDY    66  64  92 N9        30.15F                  
PATRICK AFB    FAIR      68  68 100 N12       30.16S                  
MELBOURNE      CLOUDY    70  67  90 N10       30.15F FOG              
VERO BEACH     FAIR      71  70  96 E3        30.15S FOG              
STUART         FAIR      73  72  94 S6        30.16F                  

STATION/POSITION SKY/WX   TEMP    WIND        PRES    WAVE   SWELL
                          AIR SEA DIR/SP/G            HT/PER HT/PER
                          (F)     (DEG/KT/KT) (MB)    (FT/S) (FT/S)
28.5N   80.2W              67     330/  6/  8 1021.5F   2/ 9   2/ 9
28.9N   78.5W              76 77  180/  8/  8 1022.6F   3/ 8   2/ 8
TRIDENT PIER                      350/  9/ 12 1022.6F
28.4N   80.5W                 66                N/A     2/ 9

$$
FLZ050-056-061-142-242-148-248-149-249-151-251-155-255-
160-260-191000-
WEST CENTRAL FLORIDA
  
CITY           SKY/WX    TMP DP  RH WIND       PRES   REMARKS
CRYSTAL RIVER  CLOUDY    63  52  67 NE7       30.18F                  
INVERNESS      CLOUDY    63  54  72 NE7       30.19S                  
BROOKSVILLE    CLOUDY    65  56  72 NE6       30.18S                  
CLEARWATER AIR FAIR      64  61  88 E6        30.16S                  
ST PETE CLEARW FAIR      67  61  81 NE9       30.16S                  
TAMPA INTL     MOCLDY    67  61  81 NE8       30.16F                  
TAMPA EXEC     MOCLDY    64  61  88 NE7       30.17S                  
PLANT CITY     CLOUDY    66  63  88 NE8       30.18F                  
MACDILL AFB    FAIR      64  61  90 NE7       30.15S                  
PETER O KNIGHT FAIR      66  66 100 NE12      30.16S                  
ST PETERSBURG  FAIR      68  64  87 NE13      30.14S                  
SARASOTA       FAIR      70  68  93 NE6       30.13S                  
VENICE         CLOUDY    70  70 100 E3        30.14S FOG              

STATION/POSITION SKY/WX   TEMP    WIND        PRES    WAVE   SWELL
                          AIR SEA DIR/SP/G            HT/PER HT/PER
                          (F)     (DEG/KT/KT) (MB)    (FT/S) (FT/S)
27.3N   84.2W                 72                N/A     3/ 8
CLEARWATER BEACH           67 69   80/  7/ 10 1021.3F
MIDDLE TAMPA BAY                   70/ 13/ 15 1021.3S
VENICE                     70 68   70/  5/  6   N/A

$$
FLZ066-069-070-075>078-162-262-165-265-191000-
SOUTHWEST FLORIDA AND KEYS
  
CITY           SKY/WX    TMP DP  RH WIND       PRES   REMARKS
PUNTA GORDA    FOG       65  65 100 E3        30.16S VSB 1/4          
FT MYERS       FAIR      69  68  96 CALM      30.13F                  
SOUTHWEST INTL MOCLDY    69  68  96 E6        30.14S                  
NAPLES         CLOUDY    72  72 100 E6        30.13S FOG              
MARCO ISLAND   CLOUDY   N/A N/A N/A E6        30.14S FOG              
IMMOKALEE      CLOUDY    66  64  94 NE3       30.12S                  
MARATHON       MOCLDY    80  72  76 E10G17    30.11F                  
KEY WEST NAS   FAIR      78  73  84 SE12      30.10F                  
KEY WEST INTL  FAIR      79  73  82 SE13      30.11F                  

STATION/POSITION SKY/WX   TEMP    WIND        PRES    WAVE   SWELL
                          AIR SEA DIR/SP/G            HT/PER HT/PER
                          (F)     (DEG/KT/KT) (MB)    (FT/S) (FT/S)
NAPLES                     74 74  110/  3/  5 1020.2F
26.0N   85.6W              78 79  120/ 14/ 17 1018.2F   4/ 7   2/ 7
DRY TORTUGAS               77     110/ 12/ 13 1019.1F
SAND KEY                   77                 1019.3F
SOMBRERO KEY               78                 1019.0F
LONG KEY                   78 78  110/ 14/ 17 1019.6F
MOLASSES REEF              78      80/  8     1020.3F

$$
FLZ067-068-071>074-168-172>174-191000-
SOUTHEAST FLORIDA 
  
CITY           SKY/WX    TMP DP  RH WIND       PRES   REMARKS
W PALM BEACH   MOCLDY    76  72  87 SE3       30.16S                  
FT LAUDER-EXEC MOCLDY    76  75  97 SE5       30.14S                  
FT LAUDERDALE  MOCLDY    76  76 100 SE7       30.13F                  
POMPANO BEACH  FAIR      77  73  87 SE9       30.14F                  
PEMBROKE PINES MOCLDY    75  72  90 SE6       30.15F                  
OPA LOCKA      CLOUDY    76  72  87 E3        30.14F                  
MIAMI          MOCLDY    76  75  97 E8        30.14S                  
WEST KENDALL   FAIR      75  73  93 SE6       30.13F                  
HOMESTEAD      FAIR      75  73  93 E5        30.12F                  

STATION/POSITION SKY/WX   TEMP    WIND        PRES    WAVE   SWELL
                          AIR SEA DIR/SP/G            HT/PER HT/PER
                          (F)     (DEG/KT/KT) (MB)    (FT/S) (FT/S)
PORT EVERGLADES            78     130/  5/  8 1020.6
VIRGINIA KEY               77 78  100/  5/  7 1019.9F
LAKE WORTH                        180/  7/  8 1022.1F
FOWEY ROCKS                77 77  120/ 16/ 16 1020.8F
SETTLEMENT POINT           76     150/  6/  8 1021.5R

$$